Header for Extended Forecast Station List Page

Search by: ID | Name | Date | Parm | Value | Avg | % Avg
Sort by: ID | Name | Date | Parm | Value | Avg | % Avg

Enter search or view all records.

Click on id for station plot
#IDNameDateParmValueAvg% Avg
0HWRI1BIG LOST-AT HOWELL RANCH NEAR CHILLY12-06-2021DISCHARGE (KAF)151882
1MACI1BIG LOST-MACKAY RESERVOIR NEAR MACKAY12-06-2021INFLOW (KAF)273871
2HALI1BIG WOOD-AT HAILEY12-06-2021DISCHARGE (KAF)244061
3MAGI1BIG WOOD-MAGIC DAM12-06-2021INFLOW (KAF)203753
4BITM8BITTERROOT-NEAR MISSOULA12-06-2021DISCHARGE (KAF)236219107
5BONM8BLACKFOOT-NEAR BONNER12-06-2021DISCHARGE (KAF)12414983
6BIGI1BOISE-AT GLENWOOD BRIDGE12-06-2021DISCHARGE (KAF)13466202
7LUCI1BOISE-LUCKY PEAK DAM12-06-2021INFLOW (KAF)21322595
8PARI1BOISE-NEAR PARMA12-06-2021DISCHARGE (KAF)279198141
9HOTI1BRUNEAU-NEAR HOT SPRINGS12-06-2021DISCHARGE (KAF)263966
10BULO3BULLY CREEK-BULLY CREEK DAM12-06-2021INFLOW (KAF)205404
11BUDW1BUMPING-BUMPING LAKE DAM12-06-2021INFLOW (KAF)284070
12CHDW1CHELAN-LAKE CHELAN DAM12-06-2021INFLOW (KAF)348211165
13ABOM8CLARK FORK-ABOVE MISSOULA12-06-2021DISCHARGE (KAF)30134986
14DLGM8CLARK FORK-AT DEER LODGE12-06-2021DISCHARGE (KAF)5452104
15SRGM8CLARK FORK-AT ST REGIS12-06-2021DISCHARGE (KAF)67478486
16BELM8CLARK FORK-BELOW MISSOULA12-06-2021DISCHARGE (KAF)53758092
17CABI1CLARK FORK-CABINET GORGE DAM12-06-2021INFLOW (KAF)36793622102
18NOXM8CLARK FORK-NOXON RAPIDS DAM12-06-2021INFLOW (KAF)33323150106
19DRMM8CLARK FORK-NR DRUMMOND12-06-2021DISCHARGE (KAF)11712891
20CLUW1CLE ELUM-CLE ELUM LAKE12-06-2021INFLOW (KAF)10111985
21ORFI1CLEARWATER-AT OROFINO12-06-2021DISCHARGE (KAF)825112573
22SPDI1CLEARWATER-AT SPALDING12-06-2021DISCHARGE (KAF)1449210369
23COEI1COEUR D ALENE-COEUR D ALENE LAKE12-06-2021INFLOW (KAF)1095134382
24CIBW1COLUMBIA-AT INTL BOUNDARY12-06-2021DISCHARGE (KAF)2073819652106
25BONO3COLUMBIA-BONNEVILLE DAM12-06-2021INFLOW (KAF)362173931592
26CHJW1COLUMBIA-CHIEF JOSEPH DAM12-06-2021INFLOW (KAF)2447823863103
27GCDW1COLUMBIA-GRAND COULEE DAM12-06-2021INFLOW (KAF)2232721610103
28JDAO3COLUMBIA-JOHN DAY DAM12-06-2021INFLOW (KAF)347973683594
29MCDW1COLUMBIA-MCNARY DAM12-06-2021INFLOW (KAF)332873509495
30PRWW1COLUMBIA-PRIEST RAPIDS DAM12-06-2021INFLOW (KAF)2626125629102
31RRHW1COLUMBIA-ROCKY REACH DAM12-06-2021INFLOW (KAF)2578424937103
32TDAO3COLUMBIA-THE DALLES DAM12-06-2021INFLOW (KAF)352343750694
33WANW1COLUMBIA-WANAPUM DAM12-06-2021INFLOW (KAF)2624825553103
34WELW1COLUMBIA-WELLS DAM12-06-2021INFLOW (KAF)2503424522102
35DEDI1DEADWOOD-NEAR LOWMAN12-06-2021INFLOW (KAF)142070
36MODO3DESCHUTES-AT MOODY NR BIGGS12-06-2021DISCHARGE (KAF)1259143488
37ARDW1ENTIAT-NEAR ARDENVOIR12-06-2021DISCHARGE (KAF)4127148
38CHEI1FALL RIVER-NEAR CHESTER12-06-2021DISCHARGE (KAF)9611385
39CFMM8FLATHEAD-AT COLUMBIA FALLS12-06-2021DISCHARGE (KAF)1279985130
40KERM8FLATHEAD-SELI’Š KSANKA QLISPE’ DAM12-06-2021INFLOW (KAF)14481453100
41TRYO3GRANDE RONDE-TROY12-06-2021DISCHARGE (KAF)34956862
42REXI1HENRYS FORK-AT REXBURG12-06-2021DISCHARGE (KAF)36743784
43ANTI1HENRYS FORK-AT ST. ANTHONY12-06-2021DISCHARGE (KAF)31038281
44IPDI1HENRYS FORK-ISLAND PARK DAM12-06-2021INFLOW (KAF)7310570
45HODO3HOOD-NEAR TUCKER BRIDGE12-06-2021DISCHARGE (KAF)295252117
46SERO3JOHN DAY-AT SERVICE CK12-06-2021DISCHARGE (KAF)19142245
47KADW1KACHESS-KACHESS DAM12-06-2021INFLOW (KAF)5252100
48LAUW1KETTLE-AT LAURIER12-06-2021DISCHARGE (KAF)16818491
49PITW1KLICKITAT-NEAR PITT12-06-2021DISCHARGE (KAF)409392104
50BFEI1KOOTENAI-AT BONNERS FERRY12-06-2021STAGE (FT)MMM
51LEOI1KOOTENAI-AT LEONIA12-06-2021DISCHARGE (KAF)32452252144
52LYDM8KOOTENAI-LIBBY DAM12-06-2021INFLOW (KAF)1142843135
53LWRI1LITTLE WOOD-LITTLE WOOD DAM12-06-2021INFLOW (KAF)141781
54BERO3MALHEUR-AGENCY VALLEY DAM12-06-2021INFLOW (KAF)202678
55WRMO3MALHEUR-WARM SPRINGS DAM12-06-2021INFLOW (KAF)314865
56MYKO3MCKAY CREEK-NEAR PILOT ROCK12-06-2021DISCHARGE (KAF)4038104
57PATW1METHOW-NEAR PATEROS12-06-2021DISCHARGE (KAF)138113122
58WGCM8MF FLATHEAD-NEAR WEST GLACIER12-06-2021DISCHARGE (KAF)245171143
59CLFW1NACHES-NEAR CLIFFDEL12-06-2021DISCHARGE (KAF)9313668
60NACW1NACHES-NEAR NACHES12-06-2021DISCHARGE (KAF)8719046
61DWRI1NF CLEARWATER-DWORSHAK DAM12-06-2021INFLOW (KAF)88089399
62FCFM8NF FLATHEAD-NEAR COLUMBIA FALLS12-06-2021DISCHARGE (KAF)402190212
63MONO3NF JOHN DAY-AT MONUMENT12-06-2021DISCHARGE (KAF)10927040
64CSDI1NF PAYETTE-CASCADE DAM12-06-2021INFLOW (KAF)8411772
65TONW1OKANOGAN-NEAR TONASKET12-06-2021DISCHARGE (KAF)406322126
66OWYO3OWYHEE-OWYHEE DAM12-06-2021INFLOW (KAF)257173149
67EMMI1PAYETTE-NEAR EMMETT12-06-2021DISCHARGE (KAF)34439587
68ALFW1PEND OREILLE-ALBENI FALLS DAM12-06-2021INFLOW (KAF)4106414399
69HOPI1PEND OREILLE-PEND OREILLE LAKE NR HOPE12-06-2021LAKE ELEVATION (FT)MMM
70PIHI1PORTNEUF-AT POCATELLO12-06-2021DISCHARGE (KAF)425773
71PRTI1PRIEST-NEAR PRIEST RIVER12-06-2021DISCHARGE (KAF)20625481
72RCCM8ROCK CREEK-NEAR CLINTON12-06-2021DISCHARGE (KAF)4847103
73WHBI1SALMON-AT WHITEBIRD12-06-2021DISCHARGE (KAF)937112483
74ARAI1SF BOISE-ANDERSON RANCH DAM12-06-2021INFLOW (KAF)749776
75HHWM8SF FLATHEAD-HUNGRY HORSE DAM12-06-2021INFLOW (KAF)281271104
76PLDI1SF SNAKE-PALISADES DAM12-06-2021INFLOW (KAF)45859477
77SIFI1SNAKE-AB EAGLE ROCK NR IDAHO FALLS12-06-2021DISCHARGE (KAF)60768489
78AFRI1SNAKE-AMERICAN FALLS RESERVOIR12-06-2021INFLOW (KAF)1146121295
79SNAI1SNAKE-AT BLACKFOOT12-06-2021DISCHARGE (KAF)50560084
80MILI1SNAKE-AT MILNER12-06-2021DISCHARGE (KAF)M54M
81WEII1SNAKE-AT WEISER12-06-2021DISCHARGE (KAF)2827303393
82SWAI1SNAKE-BELOW SWAN FALLS12-06-2021DISCHARGE (KAF)1712187891
83BRNI1SNAKE-BROWNLEE DAM12-06-2021INFLOW (KAF)3054328793
84IHDW1SNAKE-ICE HARBOR DAM12-06-2021INFLOW (KAF)6156836374
85JLKW4SNAKE-JACKSON LAKE AT DAM12-06-2021INFLOW (KAF)9111877
86LGSW1SNAKE-LITTLE GOOSE DAM12-06-2021INFLOW (KAF)5875817972
87LGDW1SNAKE-LOWER GRANITE DAM12-06-2021INFLOW (KAF)5875813672
88LMNW1SNAKE-LOWER MONUMENTAL DAM12-06-2021INFLOW (KAF)6156833374
89ALPW4SNAKE-NEAR ALPINE12-06-2021DISCHARGE (KAF)30137780
90ANAW1SNAKE-NEAR ANATONE12-06-2021DISCHARGE (KAF)4427585776
91BFTI1SNAKE-NEAR BLACKFOOT12-06-2021DISCHARGE (KAF)50558786
92HEII1SNAKE-NEAR HEISE12-06-2021DISCHARGE (KAF)39539999
93JKSW4SNAKE-NEAR JACKSON12-06-2021DISCHARGE (KAF)24331777
94SHYI1SNAKE-NEAR SHELLEY12-06-2021DISCHARGE (KAF)58368785
95LLKW1SPOKANE-AT LONGLAKE12-06-2021INFLOW (KAF)1326171977
96SPOW1SPOKANE-AT SPOKANE12-06-2021DISCHARGE (KAF)1034143672
97SJMI1ST JOE-AT ST MARIES12-06-2021STAGE (FT)MMM
98SATI1ST MARIES-NEAR SANTA12-06-2021DISCHARGE (KAF)298236
99STRM8ST. REGIS-NEAR ST. REGIS12-06-2021DISCHARGE (KAF)335659
100TNAW1TEANAWAY-BELOW FORKS12-06-2021DISCHARGE (KAF)6565101
101TEAI1TETON-NEAR ST. ANTHONY12-06-2021DISCHARGE (KAF)779978
102RILW1TIETON-RIMROCK LAKE NEAR RIMROCK12-06-2021INFLOW (KAF)577873
103PDTO3UMATILLA-AT PENDLETON12-06-2021DISCHARGE (KAF)13415587
104GIBO3UMATILLA-NEAR GIBBON12-06-2021DISCHARGE (KAF)556091
105UMAO3UMATILLA-NEAR UMATILLA12-06-2021DISCHARGE (KAF)14314797
106TCHW1WALLA WALLA-NEAR TOUCHET12-06-2021DISCHARGE (KAF)14920872
107WSRI1WEISER-NEAR WEISER12-06-2021DISCHARGE (KAF)20921697
108PESW1WENATCHEE-AT PESHASTIN12-06-2021DISCHARGE (KAF)435349125
109UNDW1WHITE SALMON-NEAR UNDERWOOD12-06-2021DISCHARGE (KAF)28729498
110RIDI1WILLOW CREEK-RIRIE DAM12-06-2021INFLOW (KAF)91561
111EASW1YAKIMA-AT EASTON12-06-2021DISCHARGE (KAF)738486
112KIOW1YAKIMA-AT KIONA12-06-2021DISCHARGE (KAF)61185971
113UMTW1YAKIMA-AT UMTANUM12-06-2021DISCHARGE (KAF)30436184
114KEDW1YAKIMA-KEECHELUS LAKE12-06-2021INFLOW (KAF)525397
115PARW1YAKIMA-NEAR PARKER12-06-2021DISCHARGE (KAF)44759475